Location: Shannon
(40.5500°S, 175.4167°E)
Time: 21:18:50
(UTC+00:00)

Cosmos 1666 Rocket - Pass Details

Date: 17 November 2025
Orbit: 596 x 626 km, 82.5° (Epoch: 14 December)

Event Time Altitude Azimuth Distance (km) Brightness Sun altitude
Exits shadow 14:46:45 38° 281° (W) 943 4.1 -19.3°
Maximum altitude 14:47:24 41° 258° (WSW) 903 4.1 -19.2°
Drops below altitude 10° 14:51:35 10° 187° (S) 2,000 6.7 -18.7°
Sets 14:53:57 0° 179° (S) 2,919 7.8 -18.4°
